Obelix — 7JAX — position and weather

sailwx.info

Track history (hours):
 
Tides and Currents Weather Stations Pressure Air Temp Water Temp Dewpoint Dewpoint Depression Visibility Wind Speed Wind Dir Waves Ship Positions

Obelix

Last reported at 2017-Nov-24 07:44 UTC. Time now 2017-Nov-24 11:44 UTC.
Position N 34°37' E 134°54'.

Length 74 m; draft 4.5 m.

Type: Tanker. MMSI: 432528000.

Date/timePositionNaut miles runAvg speedWind from/ knotsBaromVisibWave heightAir tempDewpointWater temp
2017-Nov-24 07:44N 34°37' E 134°54'2 8.7
2017-Nov-24 07:30N 34°37' E 134°56'5 9.6
2017-Nov-24 07:00N 34°37' E 135°02'510.2
2017-Nov-24 06:30N 34°35' E 135°08'611.0
2017-Nov-24 06:00N 34°34' E 135°15'510.8
2017-Nov-24 05:31N 34°34' E 135°21'4 7.2
2017-Nov-24 05:01N 34°33' E 135°25'0 0.1
2017-Nov-24 04:27N 34°33' E 135°25'0 0.0
2017-Nov-24 03:58N 34°33' E 135°25'0 0.0
2017-Nov-24 03:27N 34°33' E 135°25'0 0.0
2017-Nov-24 02:57N 34°33' E 135°25'0 0.0
2017-Nov-24 02:21N 34°33' E 135°25'0 0.0
2017-Nov-24 01:51N 34°33' E 135°25'0 0.0
2017-Nov-24 01:27N 34°33' E 135°25'0 0.0
2017-Nov-24 00:45N 34°33' E 135°25'0 0.0
2017-Nov-24 00:25N 34°33' E 135°25'1 2.2
2017-Nov-23 23:59N 34°33' E 135°25'4 8.2
2017-Nov-23 23:30N 34°32' E 135°20'0 0.1
2017-Nov-23 22:20N 34°32' E 135°20'0 0.0
2017-Nov-23 21:56N 34°32' E 135°20'0 0.0
2017-Nov-23 21:26N 34°32' E 135°20'0 0.0
2017-Nov-23 20:38N 34°32' E 135°20'0 0.0
2017-Nov-23 20:02N 34°32' E 135°20'0 0.1
2017-Nov-23 19:50N 34°32' E 135°20'0 0.0
2017-Nov-23 19:26N 34°32' E 135°20'0 0.0
2017-Nov-23 18:56N 34°32' E 135°20'0 0.1
2017-Nov-23 18:20N 34°32' E 135°20'0 0.0
2017-Nov-23 17:14N 34°32' E 135°20'0 0.1
2017-Nov-23 16:56N 34°32' E 135°20'0 0.0
2017-Nov-23 16:20N 34°32' E 135°20'0 0.1
2017-Nov-23 15:56N 34°32' E 135°20'0 0.0
2017-Nov-23 15:26N 34°32' E 135°20'0 0.0
2017-Nov-23 14:14N 34°32' E 135°20'0 0.1
2017-Nov-23 13:56N 34°32' E 135°20'0 0.0
2017-Nov-23 13:26N 34°32' E 135°20'0 0.0
2017-Nov-23 12:50N 34°32' E 135°20'0 0.0
2017-Nov-23 12:26N 34°32' E 135°20'0 0.0
2017-Nov-23 11:56N 34°32' E 135°20'0 0.0
2017-Nov-23 11:26N 34°32' E 135°20'0 0.0
2017-Nov-23 10:56N 34°32' E 135°20'0 0.1
2017-Nov-23 10:26N 34°32' E 135°20'0 0.0
2017-Nov-23 09:50N 34°32' E 135°20'0 0.0
2017-Nov-23 09:20N 34°32' E 135°20'0 0.1
2017-Nov-23 08:44N 34°32' E 135°20'0 0.2
2017-Nov-23 08:26N 34°32' E 135°20'0 0.0
2017-Nov-23 07:50N 34°32' E 135°20'0 0.1
2017-Nov-23 07:26N 34°32' E 135°20'0 0.0
2017-Nov-23 06:50N 34°32' E 135°20'0 0.0
2017-Nov-23 06:14N 34°32' E 135°20'0 0.0
2017-Nov-23 05:56N 34°32' E 135°20'0 0.0
2017-Nov-23 05:26N 34°32' E 135°20'0 0.0
2017-Nov-23 04:56N 34°32' E 135°20'0 0.0
2017-Nov-23 04:26N 34°32' E 135°20'0 0.0
2017-Nov-23 03:56N 34°32' E 135°20'0 0.0
2017-Nov-23 03:26N 34°32' E 135°20'0 0.0
2017-Nov-23 02:50N 34°32' E 135°20'0 0.1
2017-Nov-23 02:20N 34°32' E 135°20'0 0.0
2017-Nov-23 01:50N 34°32' E 135°20'0 0.0
2017-Nov-23 00:14N 34°32' E 135°20'0 0.0
2017-Nov-22 23:56N 34°32' E 135°20'0 0.0
2017-Nov-22 23:26N 34°32' E 135°20'0 0.0
2017-Nov-22 22:56N 34°32' E 135°20'0 0.0
2017-Nov-22 22:14N 34°32' E 135°20'0 0.0
2017-Nov-22 21:56N 34°32' E 135°20'0 0.0
2017-Nov-22 20:14N 34°32' E 135°20'0 0.0
2017-Nov-22 19:38N 34°32' E 135°20'0 0.0
2017-Nov-22 19:20N 34°32' E 135°20'  
2017-Nov-19 10:42N 34°48' E 139°13'210.6
2017-Nov-19 10:28N 34°50' E 139°15'1310.5
2017-Nov-19 09:11N 34°58' E 139°27'210.9
2017-Nov-19 09:00N 34°60' E 139°29'510.9
2017-Nov-19 08:30N 35°03' E 139°35'611.3
2017-Nov-19 08:00N 35°06' E 139°40'611.5
2017-Nov-19 07:30N 35°11' E 139°45'611.1
2017-Nov-19 07:00N 35°16' E 139°46'611.3
2017-Nov-19 06:30N 35°21' E 139°42'510.2
2017-Nov-19 06:00N 35°26' E 139°45'611.9
2017-Nov-19 05:30N 35°29' E 139°51'611.5
2017-Nov-19 04:59N 35°32' E 139°58'4 0.7
2017-Nov-18 23:45N 35°32' E 140°03'2 6.0
2017-Nov-18 23:24N 35°31' E 140°00'4 9.7
2017-Nov-18 22:57N 35°29' E 139°56'1 0.6
2017-Nov-18 21:03N 35°28' E 139°55'0 0.8
2017-Nov-18 21:00N 35°28' E 139°55'0 0.0
2017-Nov-18 20:26N 35°28' E 139°55'0 0.0
2017-Nov-18 19:56N 35°28' E 139°55'0 0.0
2017-Nov-18 19:30N 35°28' E 139°55'0 0.0
2017-Nov-18 18:52N 35°28' E 139°55'0 0.0
2017-Nov-18 18:27N 35°28' E 139°55'0 0.0
2017-Nov-18 17:54N 35°28' E 139°55'0 0.0
2017-Nov-18 17:30N 35°28' E 139°55'0 0.0
2017-Nov-18 16:53N 35°28' E 139°55'0 0.0
2017-Nov-18 12:45N 35°28' E 139°55'2 7.2
2017-Nov-18 12:30N 35°28' E 139°53'510.5
2017-Nov-18 12:00N 35°25' E 139°48'510.9
2017-Nov-18 11:30N 35°20' E 139°44'5 9.6
2017-Nov-18 11:01N 35°16' E 139°47'510.3
2017-Nov-18 10:31N 35°11' E 139°46'611.9
2017-Nov-18 10:00N 35°05' E 139°45'612.6
2017-Nov-18 09:30N 35°01' E 139°38'612.3
2017-Nov-18 09:00N 34°58' E 139°32'712.2
2017-Nov-18 08:25N 34°54' E 139°25'22510.2
2017-Nov-17 10:25N 34°04' E 134°59'512.0
2017-Nov-17 10:00N 34°09' E 134°59'1811.5
2017-Nov-17 08:23N 34°27' E 135°01'411.5
2017-Nov-17 08:00N 34°31' E 135°02'5 9.7
2017-Nov-17 07:30N 34°36' E 135°02'611.7
2017-Nov-17 07:00N 34°37' E 134°55'4 0.1
2017-Nov-16 07:16N 34°38' E 134°59'310.8
2017-Nov-16 06:57N 34°36' E 135°03'5 9.8
2017-Nov-16 06:29N 34°35' E 135°09'511.1
2017-Nov-16 06:00N 34°34' E 135°15'510.7
2017-Nov-16 05:30N 34°34' E 135°21'3 1.6
2017-Nov-16 03:26N 34°32' E 135°25'0 0.0
2017-Nov-16 02:44N 34°32' E 135°25'0 0.0
2017-Nov-15 23:38N 34°32' E 135°25'0 0.0
2017-Nov-15 23:26N 34°32' E 135°25'0 0.4
2017-Nov-15 23:00N 34°33' E 135°25'3 5.6
2017-Nov-15 22:30N 34°33' E 135°22'2 2.3
2017-Nov-15 21:46N 34°32' E 135°20'0 0.0
2017-Nov-15 21:10N 34°32' E 135°20'0 0.0
2017-Nov-15 20:58N 34°32' E 135°20'0 0.0
2017-Nov-15 20:22N 34°32' E 135°20'0 0.0
2017-Nov-15 19:58N 34°32' E 135°20'0 0.0
2017-Nov-15 19:28N 34°32' E 135°20'0 0.1
2017-Nov-15 18:46N 34°32' E 135°20'0 0.1
2017-Nov-15 18:22N 34°32' E 135°20'0 0.1
2017-Nov-15 17:52N 34°32' E 135°20'0 0.1
2017-Nov-15 17:28N 34°32' E 135°20'0 0.1
2017-Nov-15 16:58N 34°32' E 135°20'0 0.0
2017-Nov-15 16:28N 34°32' E 135°20'0 0.0
2017-Nov-15 15:58N 34°32' E 135°20'0 0.0
2017-Nov-15 15:28N 34°32' E 135°20'0 0.0
2017-Nov-15 14:58N 34°32' E 135°20'0 0.0
2017-Nov-15 14:28N 34°32' E 135°20'0 0.1
2017-Nov-15 13:58N 34°32' E 135°20'0 0.1
2017-Nov-15 13:28N 34°32' E 135°20'0 0.0
2017-Nov-15 12:46N 34°32' E 135°20'0 0.0
2017-Nov-15 12:28N 34°32' E 135°20'0 0.0
2017-Nov-15 11:58N 34°32' E 135°20'0 0.0
2017-Nov-15 11:22N 34°32' E 135°20'0 0.1
2017-Nov-15 10:58N 34°32' E 135°20'0 0.1
2017-Nov-15 10:28N 34°32' E 135°20'0 0.0
2017-Nov-15 09:58N 34°32' E 135°20'0 0.0
2017-Nov-15 09:16N 34°32' E 135°20'0 0.2
2017-Nov-15 08:58N 34°32' E 135°20'0 0.0
2017-Nov-15 08:28N 34°32' E 135°20'0 0.0
2017-Nov-15 07:58N 34°32' E 135°20'0 0.0
2017-Nov-15 07:28N 34°32' E 135°20'0 0.0
2017-Nov-15 06:58N 34°32' E 135°20'0 0.0
2017-Nov-15 06:28N 34°32' E 135°20'0 0.0
2017-Nov-15 05:52N 34°32' E 135°20'0 0.0
2017-Nov-15 05:28N 34°32' E 135°20'0 0.0
2017-Nov-15 04:58N 34°32' E 135°20'0 0.0
2017-Nov-15 04:10N 34°32' E 135°20'0 0.2
2017-Nov-15 03:58N 34°32' E 135°20'0 0.1
2017-Nov-15 03:28N 34°32' E 135°20'0 0.0
2017-Nov-15 02:52N 34°32' E 135°20'0 0.0
2017-Nov-15 02:28N 34°32' E 135°20'0 0.1
2017-Nov-15 02:00N 34°32' E 135°20'510.5
2017-Nov-15 01:30N 34°35' E 135°14'4 6.2
2017-Nov-15 00:49N 34°37' E 135°10'0 0.0
2017-Nov-15 00:19N 34°37' E 135°10'0 0.1
2017-Nov-14 23:43N 34°37' E 135°10'0 0.0
2017-Nov-14 23:19N 34°37' E 135°10'0 0.0
2017-Nov-14 22:55N 34°37' E 135°10'0 0.0
2017-Nov-14 22:19N 34°37' E 135°10'0 0.0
2017-Nov-14 21:43N 34°37' E 135°10'0 0.0
2017-Nov-14 21:19N 34°37' E 135°10'0 0.0
2017-Nov-14 20:55N 34°37' E 135°10'0 0.0
2017-Nov-14 20:25N 34°37' E 135°10'0 0.0
2017-Nov-14 19:55N 34°37' E 135°10'0 0.1
2017-Nov-14 19:25N 34°37' E 135°10'0 0.0
2017-Nov-14 18:55N 34°37' E 135°10'4 9.0
2017-Nov-14 18:30N 34°34' E 135°07'611.7
2017-Nov-14 18:00N 34°37' E 135°01'  
Track history (hours):
 
Tides and Currents Weather Stations Pressure Air Temp Water Temp Dewpoint Dewpoint Depression Visibility Wind Speed Wind Dir Waves Ship Positions

Obelix

Last reported at 2017-Nov-24 07:44 UTC. Time now 2017-Nov-24 11:44 UTC.
Position N 34°37' E 134°54'.

Length 74 m; draft 4.5 m.

Type: Tanker. MMSI: 432528000.

Date/timePositionNaut miles runAvg speedWind from/ knotsBaromVisibWave heightAir tempDewpointWater temp
2017-Nov-24 07:44N 34°37' E 134°54'2 8.7
2017-Nov-24 07:30N 34°37' E 134°56'5 9.6
2017-Nov-24 07:00N 34°37' E 135°02'510.2
2017-Nov-24 06:30N 34°35' E 135°08'611.0
2017-Nov-24 06:00N 34°34' E 135°15'510.8
2017-Nov-24 05:31N 34°34' E 135°21'4 7.2
2017-Nov-24 05:01N 34°33' E 135°25'0 0.1
2017-Nov-24 04:27N 34°33' E 135°25'0 0.0
2017-Nov-24 03:58N 34°33' E 135°25'0 0.0
2017-Nov-24 03:27N 34°33' E 135°25'0 0.0
2017-Nov-24 02:57N 34°33' E 135°25'0 0.0
2017-Nov-24 02:21N 34°33' E 135°25'0 0.0
2017-Nov-24 01:51N 34°33' E 135°25'0 0.0
2017-Nov-24 01:27N 34°33' E 135°25'0 0.0
2017-Nov-24 00:45N 34°33' E 135°25'0 0.0
2017-Nov-24 00:25N 34°33' E 135°25'1 2.2
2017-Nov-23 23:59N 34°33' E 135°25'4 8.2
2017-Nov-23 23:30N 34°32' E 135°20'0 0.1
2017-Nov-23 22:20N 34°32' E 135°20'0 0.0
2017-Nov-23 21:56N 34°32' E 135°20'0 0.0
2017-Nov-23 21:26N 34°32' E 135°20'0 0.0
2017-Nov-23 20:38N 34°32' E 135°20'0 0.0
2017-Nov-23 20:02N 34°32' E 135°20'0 0.1
2017-Nov-23 19:50N 34°32' E 135°20'0 0.0
2017-Nov-23 19:26N 34°32' E 135°20'0 0.0
2017-Nov-23 18:56N 34°32' E 135°20'0 0.1
2017-Nov-23 18:20N 34°32' E 135°20'0 0.0
2017-Nov-23 17:14N 34°32' E 135°20'0 0.1
2017-Nov-23 16:56N 34°32' E 135°20'0 0.0
2017-Nov-23 16:20N 34°32' E 135°20'0 0.1
2017-Nov-23 15:56N 34°32' E 135°20'0 0.0
2017-Nov-23 15:26N 34°32' E 135°20'0 0.0
2017-Nov-23 14:14N 34°32' E 135°20'0 0.1
2017-Nov-23 13:56N 34°32' E 135°20'0 0.0
2017-Nov-23 13:26N 34°32' E 135°20'0 0.0
2017-Nov-23 12:50N 34°32' E 135°20'0 0.0
2017-Nov-23 12:26N 34°32' E 135°20'0 0.0
2017-Nov-23 11:56N 34°32' E 135°20'0 0.0
2017-Nov-23 11:26N 34°32' E 135°20'0 0.0
2017-Nov-23 10:56N 34°32' E 135°20'0 0.1
2017-Nov-23 10:26N 34°32' E 135°20'0 0.0
2017-Nov-23 09:50N 34°32' E 135°20'0 0.0
2017-Nov-23 09:20N 34°32' E 135°20'0 0.1
2017-Nov-23 08:44N 34°32' E 135°20'0 0.2
2017-Nov-23 08:26N 34°32' E 135°20'0 0.0
2017-Nov-23 07:50N 34°32' E 135°20'0 0.1
2017-Nov-23 07:26N 34°32' E 135°20'0 0.0
2017-Nov-23 06:50N 34°32' E 135°20'0 0.0
2017-Nov-23 06:14N 34°32' E 135°20'0 0.0
2017-Nov-23 05:56N 34°32' E 135°20'0 0.0
2017-Nov-23 05:26N 34°32' E 135°20'0 0.0
2017-Nov-23 04:56N 34°32' E 135°20'0 0.0
2017-Nov-23 04:26N 34°32' E 135°20'0 0.0
2017-Nov-23 03:56N 34°32' E 135°20'0 0.0
2017-Nov-23 03:26N 34°32' E 135°20'0 0.0
2017-Nov-23 02:50N 34°32' E 135°20'0 0.1
2017-Nov-23 02:20N 34°32' E 135°20'0 0.0
2017-Nov-23 01:50N 34°32' E 135°20'0 0.0
2017-Nov-23 00:14N 34°32' E 135°20'0 0.0
2017-Nov-22 23:56N 34°32' E 135°20'0 0.0
2017-Nov-22 23:26N 34°32' E 135°20'0 0.0
2017-Nov-22 22:56N 34°32' E 135°20'0 0.0
2017-Nov-22 22:14N 34°32' E 135°20'0 0.0
2017-Nov-22 21:56N 34°32' E 135°20'0 0.0
2017-Nov-22 20:14N 34°32' E 135°20'0 0.0
2017-Nov-22 19:38N 34°32' E 135°20'0 0.0
2017-Nov-22 19:20N 34°32' E 135°20'  
2017-Nov-19 10:42N 34°48' E 139°13'210.6
2017-Nov-19 10:28N 34°50' E 139°15'1310.5
2017-Nov-19 09:11N 34°58' E 139°27'210.9
2017-Nov-19 09:00N 34°60' E 139°29'510.9
2017-Nov-19 08:30N 35°03' E 139°35'611.3
2017-Nov-19 08:00N 35°06' E 139°40'611.5
2017-Nov-19 07:30N 35°11' E 139°45'611.1
2017-Nov-19 07:00N 35°16' E 139°46'611.3
2017-Nov-19 06:30N 35°21' E 139°42'510.2
2017-Nov-19 06:00N 35°26' E 139°45'611.9
2017-Nov-19 05:30N 35°29' E 139°51'611.5
2017-Nov-19 04:59N 35°32' E 139°58'4 0.7
2017-Nov-18 23:45N 35°32' E 140°03'2 6.0
2017-Nov-18 23:24N 35°31' E 140°00'4 9.7
2017-Nov-18 22:57N 35°29' E 139°56'1 0.6
2017-Nov-18 21:03N 35°28' E 139°55'0 0.8
2017-Nov-18 21:00N 35°28' E 139°55'0 0.0
2017-Nov-18 20:26N 35°28' E 139°55'0 0.0
2017-Nov-18 19:56N 35°28' E 139°55'0 0.0
2017-Nov-18 19:30N 35°28' E 139°55'0 0.0
2017-Nov-18 18:52N 35°28' E 139°55'0 0.0
2017-Nov-18 18:27N 35°28' E 139°55'0 0.0
2017-Nov-18 17:54N 35°28' E 139°55'0 0.0
2017-Nov-18 17:30N 35°28' E 139°55'0 0.0
2017-Nov-18 16:53N 35°28' E 139°55'0 0.0
2017-Nov-18 12:45N 35°28' E 139°55'2 7.2
2017-Nov-18 12:30N 35°28' E 139°53'510.5
2017-Nov-18 12:00N 35°25' E 139°48'510.9
2017-Nov-18 11:30N 35°20' E 139°44'5 9.6
2017-Nov-18 11:01N 35°16' E 139°47'510.3
2017-Nov-18 10:31N 35°11' E 139°46'611.9
2017-Nov-18 10:00N 35°05' E 139°45'612.6
2017-Nov-18 09:30N 35°01' E 139°38'612.3
2017-Nov-18 09:00N 34°58' E 139°32'712.2
2017-Nov-18 08:25N 34°54' E 139°25'22510.2
2017-Nov-17 10:25N 34°04' E 134°59'512.0
2017-Nov-17 10:00N 34°09' E 134°59'1811.5
2017-Nov-17 08:23N 34°27' E 135°01'411.5
2017-Nov-17 08:00N 34°31' E 135°02'5 9.7
2017-Nov-17 07:30N 34°36' E 135°02'611.7
2017-Nov-17 07:00N 34°37' E 134°55'4 0.1
2017-Nov-16 07:16N 34°38' E 134°59'310.8
2017-Nov-16 06:57N 34°36' E 135°03'5 9.8
2017-Nov-16 06:29N 34°35' E 135°09'511.1
2017-Nov-16 06:00N 34°34' E 135°15'510.7
2017-Nov-16 05:30N 34°34' E 135°21'3 1.6
2017-Nov-16 03:26N 34°32' E 135°25'0 0.0
2017-Nov-16 02:44N 34°32' E 135°25'0 0.0
2017-Nov-15 23:38N 34°32' E 135°25'0 0.0
2017-Nov-15 23:26N 34°32' E 135°25'0 0.4
2017-Nov-15 23:00N 34°33' E 135°25'3 5.6
2017-Nov-15 22:30N 34°33' E 135°22'2 2.3
2017-Nov-15 21:46N 34°32' E 135°20'0 0.0
2017-Nov-15 21:10N 34°32' E 135°20'0 0.0
2017-Nov-15 20:58N 34°32' E 135°20'0 0.0
2017-Nov-15 20:22N 34°32' E 135°20'0 0.0
2017-Nov-15 19:58N 34°32' E 135°20'0 0.0
2017-Nov-15 19:28N 34°32' E 135°20'0 0.1
2017-Nov-15 18:46N 34°32' E 135°20'0 0.1
2017-Nov-15 18:22N 34°32' E 135°20'0 0.1
2017-Nov-15 17:52N 34°32' E 135°20'0 0.1
2017-Nov-15 17:28N 34°32' E 135°20'0 0.1
2017-Nov-15 16:58N 34°32' E 135°20'0 0.0
2017-Nov-15 16:28N 34°32' E 135°20'0 0.0
2017-Nov-15 15:58N 34°32' E 135°20'0 0.0
2017-Nov-15 15:28N 34°32' E 135°20'0 0.0
2017-Nov-15 14:58N 34°32' E 135°20'0 0.0
2017-Nov-15 14:28N 34°32' E 135°20'0 0.1
2017-Nov-15 13:58N 34°32' E 135°20'0 0.1
2017-Nov-15 13:28N 34°32' E 135°20'0 0.0
2017-Nov-15 12:46N 34°32' E 135°20'0 0.0
2017-Nov-15 12:28N 34°32' E 135°20'0 0.0
2017-Nov-15 11:58N 34°32' E 135°20'0 0.0
2017-Nov-15 11:22N 34°32' E 135°20'0 0.1
2017-Nov-15 10:58N 34°32' E 135°20'0 0.1
2017-Nov-15 10:28N 34°32' E 135°20'0 0.0
2017-Nov-15 09:58N 34°32' E 135°20'0 0.0
2017-Nov-15 09:16N 34°32' E 135°20'0 0.2
2017-Nov-15 08:58N 34°32' E 135°20'0 0.0
2017-Nov-15 08:28N 34°32' E 135°20'0 0.0
2017-Nov-15 07:58N 34°32' E 135°20'0 0.0
2017-Nov-15 07:28N 34°32' E 135°20'0 0.0
2017-Nov-15 06:58N 34°32' E 135°20'0 0.0
2017-Nov-15 06:28N 34°32' E 135°20'0 0.0
2017-Nov-15 05:52N 34°32' E 135°20'0 0.0
2017-Nov-15 05:28N 34°32' E 135°20'0 0.0
2017-Nov-15 04:58N 34°32' E 135°20'0 0.0
2017-Nov-15 04:10N 34°32' E 135°20'0 0.2
2017-Nov-15 03:58N 34°32' E 135°20'0 0.1
2017-Nov-15 03:28N 34°32' E 135°20'0 0.0
2017-Nov-15 02:52N 34°32' E 135°20'0 0.0
2017-Nov-15 02:28N 34°32' E 135°20'0 0.1
2017-Nov-15 02:00N 34°32' E 135°20'510.5
2017-Nov-15 01:30N 34°35' E 135°14'4 6.2
2017-Nov-15 00:49N 34°37' E 135°10'0 0.0
2017-Nov-15 00:19N 34°37' E 135°10'0 0.1
2017-Nov-14 23:43N 34°37' E 135°10'0 0.0
2017-Nov-14 23:19N 34°37' E 135°10'0 0.0
2017-Nov-14 22:55N 34°37' E 135°10'0 0.0
2017-Nov-14 22:19N 34°37' E 135°10'0 0.0
2017-Nov-14 21:43N 34°37' E 135°10'0 0.0
2017-Nov-14 21:19N 34°37' E 135°10'0 0.0
2017-Nov-14 20:55N 34°37' E 135°10'0 0.0
2017-Nov-14 20:25N 34°37' E 135°10'0 0.0
2017-Nov-14 19:55N 34°37' E 135°10'0 0.1
2017-Nov-14 19:25N 34°37' E 135°10'0 0.0
2017-Nov-14 18:55N 34°37' E 135°10'4 9.0
2017-Nov-14 18:30N 34°34' E 135°07'611.7
2017-Nov-14 18:00N 34°37' E 135°01'  

Dump ship's entire track history